User: anonymous   Login
Location: Thompson
(55.7500°N, 97.8670°W)
Time: 14:13:11
(UTC-05:00)
Language:

Cosmos 1833 Rocket - Orbit

View from above orbital plane
View from above orbital plane
View from above satellite
View from above satellite

Ground track
Ground track

The orbit data is extracted from the following two-line orbital elements,

1 17590U 87027B   15245.95168960 +.00000228 +00000-0 +13780-3 0  9991
2 17590 071.0019 085.4825 0006655 234.1078 125.9428 14.16703201471379
Epoch (UTC): 02 September 2015 22:50:25
Eccentricity: 0.0006655
inclination: 71.0019°
perigee height: 832 km
apogee height: 841 km
right ascension of ascending node: 85.4825°
argument of perigee: 234.1078°
revolutions per day: 14.16703201
mean anomaly at epoch: 125.9428°
orbit number at epoch: 47137

The dashed part of the orbit path shows where the satellite is in the earth's shadow,  

DLR